Back to catalog

INMARSAT 5-F1

AliveCommunicationsGEO
NORAD 39476·PAYLOAD·🇮🇲 IM

Launched Dec 8, 2013 from Baikonur Cosmodrome

Loading…

TLE

FreshSource: Space-Track

Epoch: Sep 14, 2026, 14:06 UTC

1 39476U 13073A   26257.58758106  .00000019  00000-0  00000-0 0  9995
2 39476   0.0189 145.4756 0000429   5.4608 116.8056  1.00272916 46475

Track INMARSAT 5-F1 in real time with AllMySat

Download on the App Store